This demonstration page uses our WeatherBlox Daily Observations layout. Learn more.

Hourly Observations for June 30, 2017

Temp ( °F °C ) Dew Point ( °F °C ) Humidity (%) Winds ( mph kmh ) Pressure ( in mb ) Visibility ( mi km ) Precip ( " mm )
12:15 am 00:15 Clear 79 26 66 19 65 65 SSW 10 17 30.06 1018 10 16.09344 0 0
12:35 am 00:35 Clear 77 25 66 19 69 69 SSW 9 15 30.06 1018 10 16.09344 0 0
12:55 am 00:55 Partly Cloudy 77 25 66 19 69 69 SSW 9 15 30.06 1018 10 16.09344 0 0
1:15 am 01:15 Partly Cloudy 77 25 66 19 69 69 SSW 9 15 30.06 1018 10 16.09344 0 0
1:35 am 01:35 Clear 77 25 66 19 69 69 S 10 17 30.06 1018 10 16.09344 0 0
1:55 am 01:55 Clear 77 25 66 19 69 69 S 7 11 30.06 1018 10 16.09344 0 0
2:15 am 02:15 Clear 75 24 66 19 74 74 S 7 11 30.06 1018 10 16.09344 0 0
2:35 am 02:35 Clear 73 23 66 19 78 78 S 7 11 30.06 1018 10 16.09344 0 0
2:55 am 02:55 Partly Cloudy 73 23 66 19 78 78 S 8 13 30.06 1018 10 16.09344 0 0
3:15 am 03:15 Partly Cloudy 73 23 66 19 78 78 SSW 6 9 30.06 1018 10 16.09344 0 0
3:35 am 03:35 Partly Cloudy 73 23 66 19 78 78 S 5 7 30.03 1017 10 16.09344 0 0
3:55 am 03:55 Clear 73 23 64 18 74 74 S 7 11 30.03 1017 10 16.09344 0 0
4:15 am 04:15 Clear 72 22 64 18 78 78 S 7 11 30.03 1017 10 16.09344 0 0
4:35 am 04:35 Clear 72 22 64 18 78 78 S 5 7 30.03 1017 10 16.09344 0 0
4:55 am 04:55 Partly Cloudy 72 22 64 18 78 78 SSW 3 6 30.03 1017 10 16.09344 0 0
5:15 am 05:15 Partly Cloudy 72 22 64 18 78 78 SSW 5 7 30.03 1017 10 16.09344 0 0
5:35 am 05:35 Clear 70 21 64 18 83 83 SSW 3 6 30.03 1017 10 16.09344 0 0
5:55 am 05:55 Sunny 70 21 64 18 83 83 SSW 3 6 30.03 1017 10 16.09344 0 0
6:15 am 06:15 Sunny 70 21 64 18 83 83 Calm 30.03 1017 10 16.09344 0 0
6:35 am 06:35 Sunny 72 22 64 18 78 78 Calm 30.03 1017 10 16.09344 0 0
6:55 am 06:55 Sunny 72 22 64 18 78 78 SSE 3 6 30.06 1018 10 16.09344 0 0
7:15 am 07:15 Sunny 73 23 64 18 74 74 S 3 6 30.06 1018 10 16.09344 0 0
7:35 am 07:35 Sunny 73 23 64 18 74 74 SSE 6 9 30.06 1018 10 16.09344 0 0
7:55 am 07:55 Sunny 75 24 66 19 74 74 S 5 7 30.06 1018 10 16.09344 0 0
8:15 am 08:15 Partly Cloudy 77 25 66 19 69 69 S 6 9 30.06 1018 10 16.09344 0 0
8:35 am 08:35 Sunny 79 26 66 19 65 65 S 5 7 30.06 1018 10 16.09344 0 0
8:55 am 08:55 Sunny 79 26 68 20 70 70 S 3 6 30.06 1018 10 16.09344 0 0
9:15 am 09:15 Sunny 79 26 68 20 70 70 SSE 3 6 30.06 1018 10 16.09344 0 0
9:35 am 09:35 Partly Cloudy 81 27 68 20 66 66 S 5 7 30.06 1018 10 16.09344 0 0
9:55 am 09:55 Mostly Cloudy 81 27 68 20 66 66 SSE 5 7 30.06 1018 10 16.09344 0 0
10:15 am 10:15 Partly Cloudy 82 28 68 20 62 62 Calm 30.06 1018 10 16.09344 0 0
10:35 am 10:35 Partly Cloudy 84 29 68 20 58 58 SSE 7 11 30.06 1018 10 16.09344 0 0
10:55 am 10:55 Sunny 86 30 68 20 55 55 S 5 7 30.06 1018 10 16.09344 0 0
11:15 am 11:15 Sunny 88 31 70 21 55 55 S 7 11 30.03 1017 10 16.09344 0 0
11:35 am 11:35 Sunny 88 31 68 20 52 52 SSW 7 11 30.03 1017 10 16.09344 0 0
11:55 am 11:55 Sunny 88 31 68 20 52 52 S 10 17 30 1016 10 16.09344 0 0
12:15 pm 12:15 Sunny 90 32 68 20 49 49 S 13 20 30 1016 10 16.09344 0 0
12:35 pm 12:35 Sunny 91 33 68 20 46 46 S 12 19 30 1016 10 16.09344 0 0
12:55 pm 12:55 Sunny 91 33 68 20 46 46 S 7 11 30 1016 10 16.09344 0 0
1:15 pm 13:15 Sunny 91 33 68 20 46 46 S 12 19 29.97 1015 10 16.09344 0 0
1:35 pm 13:35 Sunny 93 34 68 20 44 44 S 12 19 29.97 1015 10 16.09344 0 0
1:55 pm 13:55 Sunny 93 34 68 20 44 44 SSW 15 24 29.97 1015 10 16.09344 0 0
2:15 pm 14:15 Sunny 93 34 68 20 44 44 SSW 12 19 29.94 1014 10 16.09344 0 0
2:35 pm 14:35 Sunny 93 34 68 20 44 44 SSW 14 22 29.94 1014 10 16.09344 0 0
2:55 pm 14:55 Sunny 95 35 70 21 44 44 SSW 16 26 29.94 1014 10 16.09344 0 0
3:15 pm 15:15 Sunny 95 35 68 20 41 41 WSW 15 24 29.94 1014 10 16.09344 0 0
3:35 pm 15:35 Sunny 95 35 68 20 41 41 SSW 12 19 29.94 1014 10 16.09344 0 0
3:55 pm 15:55 Sunny 95 35 68 20 41 41 SW 15 24 29.94 1014 10 16.09344 0 0
4:15 pm 16:15 Sunny 95 35 70 21 44 44 SW 21 33 29.94 1014 10 16.09344 0 0
4:35 pm 16:35 Sunny 91 33 70 21 49 49 SSW 22 35 29.94 1014 10 16.09344 0 0
4:55 pm 16:55 Sunny 91 33 70 21 49 49 SW 13 20 29.94 1014 10 16.09344 0 0
5:15 pm 17:15 Sunny 91 33 70 21 49 49 SW 17 28 29.91 1013 10 16.09344 0 0
5:35 pm 17:35 Sunny 90 32 70 21 52 52 SSW 22 35 29.91 1013 10 16.09344 0 0
5:55 pm 17:55 Sunny 90 32 70 21 52 52 SSW 20 31 29.91 1013 10 16.09344 0 0
6:15 pm 18:15 Sunny 90 32 70 21 52 52 SW 18 30 29.91 1013 10 16.09344 0 0
6:35 pm 18:35 Sunny 90 32 70 21 52 52 SW 12 19 29.91 1013 10 16.09344 0 0
6:55 pm 18:55 Sunny 88 31 70 21 55 55 SSW 14 22 29.91 1013 10 16.09344 0 0
7:15 pm 19:15 Sunny 88 31 72 22 59 59 SSW 16 26 29.94 1014 10 16.09344 0 0
7:35 pm 19:35 Sunny 88 31 72 22 59 59 SSW 13 20 29.94 1014 10 16.09344 0 0
8:15 pm 20:15 Mostly Cloudy 86 30 72 22 62 62 SSW 13 20 29.94 1014 10 16.09344 0 0
8:35 pm 20:35 Mostly Cloudy 77 25 73 23 89 89 SSW 9 15 30 1016 10 16.09344 0 0
8:55 pm 20:55 Partly Cloudy 77 25 73 23 89 89 SSW 10 17 30 1016 10 16.09344 0 0
9:15 pm 21:15 Clear 77 25 72 22 83 83 SSW 8 13 30 1016 10 16.09344 0 0
9:35 pm 21:35 Clear 77 25 73 23 89 89 SSW 8 13 30 1016 10 16.09344 0 0
9:55 pm 21:55 Clear 75 24 73 23 94 94 S 8 13 30 1016 10 16.09344 0 0
10:15 pm 22:15 Clear 77 25 73 23 89 89 S 9 15 30 1016 10 16.09344 0 0
10:35 pm 22:35 Clear 77 25 73 23 89 89 S 9 15 30 1016 10 16.09344 0 0
10:55 pm 22:55 Clear 75 24 73 23 94 94 S 5 7 30 1016 10 16.09344 0 0
11:15 pm 23:15 Clear 73 23 73 23 100 100 Calm 30 1016 10 16.09344 0 0
11:35 pm 23:35 Clear 75 24 73 23 94 94 SSW 3 6 30 1016 10 16.09344 0 0
11:55 pm 23:55 Partly Cloudy 77 25 73 23 89 89 S 6 9 30 1016 10 16.09344 0 0

Powered by AerisWeather